EW2549 Weather Reports


time (UTC)temp
C
wind
direction
speed
KPH
gust
KPH
rain 1hr
cm
rain 24hr
cm
rain mn
cm
humidity
%
barometer
mb
20260901041546 16 159 0.0 0.0 0.00 0.28 0.28 84 1008.7
20260901040046 16 159 0.0 0.0 0.00 0.28 0.28 84 1008.7
20260901034553 16 159 0.0 0.0 0.05 0.28 0.28 84 1009.0
20260901033046 16 159 0.0 0.0 0.13 0.28 0.28 84 1008.7
20260901031551 17 150 0.0 0.0 0.18 0.28 0.28 82 1008.7
20260901030043 17 165 0.0 0.0 0.23 0.28 0.28 80 1009.8
20260901024541 18 174 0.0 0.0 0.18 0.23 0.23 76 1010.4
20260901023042 18 200 0.0 0.0 0.10 0.15 0.15 74 1010.1
20260901021558 19 194 0.0 24.1 0.05 0.10 0.10 67 1009.4
20260901020058 20 178 9.7 20.9 0.00 0.05 0.05 57 1008.2
20260901014537 20 239 0.0 0.0 0.03 0.05 0.05 57 1007.2
20260901013042 20 310 0.0 0.0 0.05 0.05 0.05 56 1007.1
20260901011540 21 360 0.0 0.0 0.05 0.05 0.05 58 1007.0
20260901010040 22 310 0.0 8.0 0.05 0.05 0.05 55 1007.6
20260901004537 24 323 3.2 19.3 0.03 0.03 0.03 48 1007.5
20260901003040 27 78 0.0 0.0 0.00 0.00 0.00 33 1006.7
20260901001537 27 79 0.0 0.0 0.00 0.00 0.00 32 1006.7
20260901000034 28 79 0.0 0.0 0.00 0.00 0.00 30 1006.6
20260831234541 29 108 0.0 4.8 0.00 0.00 0.00 29 1006.7
20260831233043 29 92 0.0 0.0 0.00 0.00 0.00 28 1006.7
20260831231530 29 91 0.0 4.8 0.00 0.00 0.00 28 1006.7
20260831230128 28 72 0.0 11.3 0.00 0.00 0.00 29 1006.8
20260831224526 28 82 1.6 11.3 0.00 0.00 0.00 29 1007.0
20260831223023 28 71 0.0 0.0 0.00 0.00 0.00 31 1007.2
20260831221524 28 69 0.0 0.0 0.00 0.00 0.00 33 1007.5
20260831220024 28 69 0.0 4.8 0.00 0.00 0.00 30 1007.7
20260831214521 28 90 0.0 3.2 0.00 0.00 0.00 31 1007.6
20260831213030 28 144 0.0 0.0 0.00 0.00 0.00 31 1008.0
20260831211517 27 88 0.0 4.8 0.00 0.00 0.00 32 1008.1
20260831210020 27 108 0.0 0.0 0.00 0.00 0.00 32 1008.4
20260831204515 27 108 0.0 0.0 0.00 0.05 0.00 33 1008.5
20260831203011 27 118 0.0 0.0 0.00 0.05 0.00 33 1008.8
20260831201511 26 72 0.0 0.0 0.00 0.05 0.00 32 1009.1
20260831200020 27 65 0.0 0.0 0.00 0.05 0.00 32 1009.2
20260831194510 26 114 0.0 0.0 0.00 0.05 0.00 34 1009.4
20260831193009 26 169 0.0 0.0 0.00 0.05 0.00 33 1009.6
20260831191502 26 126 0.0 0.0 0.00 0.05 0.00 35 1009.8
20260831190119 26 125 0.0 0.0 0.00 0.05 0.00 36 1010.0
20260831184625 25 125 0.0 0.0 0.00 0.05 0.00 37 1010.1
20260831183106 25 124 0.0 0.0 0.00 0.05 0.00 35 1010.2
20260831181557 25 126 0.0 0.0 0.00 0.05 0.00 37 1010.2
20260831180055 25 142 0.0 0.0 0.00 0.05 0.00 38 1010.3
20260831174600 24 113 0.0 0.0 0.00 0.05 0.00 38 1010.4
20260831173100 24 113 0.0 0.0 0.00 0.05 0.00 39 1010.5
20260831171550 24 113 0.0 0.0 0.00 0.05 0.00 40 1010.5
20260831170056 24 121 0.0 0.0 0.00 0.05 0.00 40 1010.5
20260831163051 23 191 0.0 0.0 0.00 0.05 0.00 42 1010.5
20260831161544 23 191 0.0 0.0 0.00 0.05 0.00 43 1010.3
20260831160047 23 192 0.0 0.0 0.00 0.05 0.00 44 1010.2
20260831154540 23 192 0.0 0.0 0.00 0.05 0.00 48 1010.2
20260831153038 22 200 0.0 0.0 0.00 0.05 0.00 46 1010.3
20260831151534 21 277 0.0 0.0 0.00 0.05 0.00 48 1010.2
20260831150030 20 277 0.0 0.0 0.00 0.05 0.00 51 1010.4
20260831144545 18 277 0.0 0.0 0.00 0.05 0.00 55 1010.5
20260831143035 17 280 0.0 0.0 0.00 0.05 0.00 61 1010.5
20260831141529 16 280 0.0 0.0 0.00 0.05 0.00 68 1010.4
20260831140027 16 280 0.0 0.0 0.00 0.05 0.00 69 1010.2
20260831134524 15 280 0.0 0.0 0.00 0.05 0.00 69 1009.9
20260831133023 15 280 0.0 0.0 0.00 0.05 0.00 69 1009.8
20260831131521 14 280 0.0 0.0 0.00 0.05 0.00 68 1009.5
20260831130022 14 280 0.0 0.0 0.00 0.05 0.00 69 1009.2
20260831124517 14 280 0.0 0.0 0.00 0.05 0.00 70 1009.1
20260831123016 14 280 0.0 0.0 0.00 0.05 0.00 69 1008.8
20260831121524 13 280 0.0 0.0 0.00 0.05 0.00 69 1008.7
20260831120019 13 280 0.0 0.0 0.00 0.05 0.00 69 1008.5
20260831114512 13 280 0.0 0.0 0.00 0.05 0.00 71 1008.4
20260831113012 13 280 0.0 0.0 0.00 0.05 0.00 72 1008.5
20260831111510 13 280 0.0 0.0 0.00 0.05 0.00 72 1008.3
20260831110009 14 280 0.0 0.0 0.00 0.05 0.00 71 1008.3
20260831104510 14 280 0.0 0.0 0.00 0.05 0.00 72 1008.2
20260831103004 15 280 0.0 0.0 0.00 0.05 0.00 72 1008.1
20260831101502 15 280 0.0 0.0 0.00 0.05 0.00 73 1008.2
20260831100106 15 280 0.0 0.0 0.00 0.05 0.00 71 1008.1
20260831094558 15 280 0.0 0.0 0.00 0.05 0.00 70 1007.9
20260831093155 15 280 0.0 0.0 0.00 0.05 0.00 70 1007.7
20260831091554 16 280 0.0 0.0 0.00 0.05 0.00 69 1007.6
20260831090052 16 280 0.0 0.0 0.00 0.05 0.00 68 1007.6
20260831084559 16 280 0.0 0.0 0.00 0.05 0.00 68 1007.5
20260831083050 16 280 0.0 0.0 0.00 0.05 0.00 68 1007.7
20260831081605 17 216 0.0 0.0 0.00 0.05 0.00 69 1007.7
20260831080042 17 216 0.0 0.0 0.00 0.05 0.00 68 1007.8
20260831074544 17 192 0.0 0.0 0.00 0.05 0.00 67 1007.9
20260831073101 18 119 0.0 0.0 0.00 0.05 0.00 66 1008.2
20260831071532 18 119 0.0 0.0 0.00 0.05 0.00 64 1008.4
20260831070033 18 119 0.0 0.0 0.00 0.05 0.00 61 1008.4
20260831064534 20 123 0.0 0.0 0.00 0.05 0.00 58 1008.4
20260831063023 20 122 0.0 0.0 0.00 0.05 0.00 54 1008.5
20260831061530 20 122 0.0 17.7 0.00 0.05 0.00 47 1008.6
20260831060016 20 183 1.6 8.0 0.00 0.05 0.00 45 1008.5
20260831054515 20 240 0.0 0.0 0.00 0.05 0.05 48 1008.6
20260831053021 20 280 0.0 22.5 0.00 0.05 0.05 48 1008.9
20260831051514 20 245 3.2 22.5 0.00 0.05 0.05 50 1008.8
20260831050033 18 236 0.0 4.8 0.00 0.05 0.05 58 1009.5
20260831044513 17 248 0.0 0.0 0.00 0.05 0.05 71 1009.7